Location: Colorado Springs
(38.8340°N, 104.8210°W)
Time: 21:32:12
(UTC-07:00)

Vanguard 3 - Pass Details

Date: 26 October 2017
Orbit: 509 x 3263 km, 33.4° (Epoch: 17 November)

Event Time Altitude Azimuth Distance (km) Brightness Sun altitude
Rises 00:34:49 0° 205° (SSW) 7,084 - -63.6°
Reaches altitude 10° 00:40:35 10° 195° (SSW) 6,177 - -63.7°
Maximum altitude 00:55:54 29° 145° (SE) 4,527 - -63.5°
Exits shadow 01:08:09 11° 94° (E) 5,107 11.2 -63.1°
Drops below altitude 10° 01:08:38 10° 93° (E) 5,169 11.2 -63.1°
Sets 01:12:48 0° 83° (E) 5,813 11.7 -62.9°
